Wind_Speed
47 49 51 53 52 52 54 57 56 61 60 61 63 58 62 69 72 77 80 87 95 97 102 104 107 108 110 112 120 129 133 137 140 142 144 145 146 146 147 146 141 139 133 123
50 51 51 49 53 58 61 61 55 56 57 58 57 60 67 65 75 82 86 92 92 97 101 107 114 110 115 118 122 125 126 132 138 140 143 142 139 143 141 139 129 122 117 112
48 49 53 57 60 59 57 54 53 53 54 62 69 68 74 76 88 93 98 104 103 100 94 98 101 104 107 108 114 121 123 127 130 132 129 124 127 122 120 119 116 113 112 115
46 56 58 58 62 59 62 68 64 67 68 72 76 80 89 96 99 111 104 104 102 103 101 101 103 103 103 104 102 105 105 109 118 116 120 125 125 123 120 115 115 112 112 114
51 57 62 64 64 65 74 72 74 71 76 82 94 91 99 104 115 122 116 110 104 101 103 103 102 101 94 90 88 89 88 91 94 94 98 101 104 105 106 106 104 104 104 103
52 57 61 62 65 73 75 75 74 74 75 81 91 96 103 113 126 123 115 111 109 105 102 102 99 92 86 84 81 78 78 79 79 80 83 83 83 88 92 94 95 98 98 99
54 57 59 66 71 73 76 76 78 79 82 93 100 99 116 114 125 127 117 113 110 108 99 88 84 81 78 76 71 69 66 66 65 65 65 65 65 66 65 68 72 77 79 82
58 58 60 62 70 71 69 82 87 91 93 98 105 113 119 121 135 130 123 116 116 107 97 88 84 80 75 71 67 62 59 57 57 54 55 54 54 50 52 55 57 59 60 62
57 60 62 60 69 77 81 86 94 96 100 105 114 121 128 137 143 126 113 104 98 90 83 79 76 71 65 64 60 56 53 50 49 48 48 47 45 43 43 45 45 47 46 47
61 65 66 64 69 81 86 93 102 104 111 112 115 126 138 144 133 114 109 97 89 83 79 72 67 64 62 56 51 47 43 42 41 40 39 39 37 34 33 33 32 33 34 36
61 61 63 68 75 85 90 95 104 109 114 126 131 129 142 144 134 121 112 94 86 81 69 61 54 52 49 46 42 39 35 33 31 30 29 26 24 24 23 23 21 20 20 22
64 67 67 73 78 83 92 97 105 112 121 126 131 133 149 146 130 121 106 90 85 76 68 57 49 44 41 39 36 32 28 24 22 21 19 16 14 14 12 13 12 10 8 9
67 65 71 78 83 90 96 102 110 114 120 128 137 139 151 147 126 116 98 87 80 65 60 56 49 43 38 34 27 24 22 19 16 13 11 11 11 11 11 10 7 4 2 3
68 70 80 85 92 93 99 105 111 117 120 128 138 147 150 139 115 104 92 86 76 57 49 48 43 37 30 24 21 17 14 12 11 13 15 15 15 16 17 16 15 15 14 12
70 75 82 84 88 94 101 110 116 120 126 133 139 148 156 133 110 95 84 78 69 57 48 41 38 31 26 20 16 15 15 16 18 20 20 22 22 22 23 23 25 24 24 20
75 78 79 86 91 95 103 107 116 122 130 134 140 149 151 139 109 92 80 66 59 52 46 38 32 25 18 14 16 19 19 23 24 28 28 27 28 31 33 33 33 33 32 28
79 78 82 89 95 97 101 108 116 125 130 138 145 149 136 126 101 88 68 55 50 45 38 30 25 18 12 13 21 25 27 29 33 40 43 42 42 42 43 43 41 39 37 37
84 83 85 88 93 98 106 110 118 127 134 138 146 150 138 121 99 84 70 51 46 41 34 27 20 11 10 20 26 31 37 42 46 51 55 54 53 51 51 50 46 44 42 40
88 84 86 92 96 99 107 114 120 124 131 136 144 155 136 114 96 83 70 62 48 38 30 22 12 10 17 28 34 42 46 51 60 61 59 57 58 56 54 50 47 47 45 41
85 87 94 100 104 107 109 114 121 127 133 141 146 150 134 100 82 67 58 49 42 32 24 16 14 15 27 34 40 48 55 60 57 54 56 55 54 53 51 50 49 47 38 42
86 92 93 101 108 110 110 112 118 125 131 140 143 153 146 101 78 60 48 42 32 24 17 14 17 26 30 34 43 48 52 51 52 49 50 50 51 50 47 47 44 40 37 39
88 90 97 108 109 107 110 115 122 125 130 138 145 152 137 97 75 58 46 37 27 18 14 17 29 30 33 36 39 47 50 48 48 50 45 47 48 42 42 39 40 35 45 49
90 92 98 107 110 110 112 117 120 127 132 135 142 155 128 91 69 50 41 31 22 13 16 27 33 33 33 32 40 45 43 41 46 45 48 53 48 46 48 47 43 43 44 45
90 94 100 105 111 110 116 122 123 128 133 138 142 143 127 88 63 45 36 26 16 10 24 33 37 35 31 34 42 40 41 44 46 45 42 42 46 46 43 39 43 43 43 42
91 94 100 104 109 110 117 116 121 130 133 136 142 130 133 80 56 39 31 21 11 12 28 36 38 37 31 41 36 39 39 43 46 49 48 44 42 38 39 40 41 42 41 39
91 95 102 105 108 111 116 117 122 127 132 133 142 130 114 76 50 34 24 14 6 17 29 39 39 37 38 36 39 44 43 44 47 45 43 38 39 36 36 38 37 34 31 30
Wind_Direction
350 348 346 341 335 330 328 327 323 322 315 307 303 307 306 304 306 303 302 298 291 292 285 281 281 276 274 271 272 267 265 264 261 261 260 260 261 264 265 266 266 266 265 266
345 347 342 335 333 332 330 327 323 314 308 307 318 322 323 320 319 318 312 309 302 300 293 289 285 280 278 274 272 270 269 269 268 267 267 268 268 268 269 268 267 268 267 265
343 343 337 337 336 333 331 329 328 324 329 329 327 333 336 329 330 326 329 324 311 301 298 294 288 285 283 281 278 274 273 271 273 272 273 274 275 275 275 273 270 267 264 260
341 336 336 335 334 331 341 342 340 344 343 343 340 336 344 336 334 335 325 325 322 313 305 300 297 292 289 286 284 282 281 279 276 277 278 277 277 276 274 272 270 267 262 256
337 334 335 336 333 334 333 337 345 344 350 352 346 342 343 338 337 337 331 322 317 313 308 305 304 302 300 296 291 286 281 277 273 271 270 269 270 271 271 271 270 268 266 263
333 335 337 336 334 332 332 336 340 343 348 351 344 343 342 342 342 336 327 322 318 315 311 311 309 305 302 299 294 291 286 282 279 275 273 271 269 268 267 267 266 266 266 265
334 335 333 334 333 329 331 334 338 344 348 355 349 345 343 342 340 338 331 324 320 316 314 312 309 307 304 300 298 294 290 287 282 279 277 276 272 270 268 265 263 262 262 262
334 332 330 334 334 334 332 344 345 348 350 353 347 347 342 344 342 339 336 327 325 323 322 319 315 312 309 305 303 301 298 296 295 291 287 283 279 277 272 267 265 262 261 259
334 333 331 330 335 342 345 346 349 346 352 353 350 347 346 346 342 338 331 327 324 323 322 320 316 312 311 310 307 305 303 300 296 294 292 288 285 281 279 276 274 271 268 264
333 335 337 332 335 342 343 347 348 349 355 352 352 349 349 347 340 332 329 329 330 328 325 321 318 317 315 313 311 308 306 302 300 294 289 287 286 285 284 280 275 269 265 261
338 339 338 333 337 345 346 347 347 349 354 351 351 349 349 345 340 335 334 334 333 331 327 324 324 322 319 317 314 313 310 307 302 296 294 296 296 292 290 286 285 278 264 255
342 341 340 340 340 343 345 346 349 353 355 352 350 351 352 348 340 337 336 337 336 334 330 333 336 334 328 326 328 326 319 317 317 318 321 320 312 308 302 294 291 285 273 258
340 339 341 341 346 346 348 349 351 354 354 353 353 352 349 350 344 338 338 338 336 336 335 337 339 340 339 337 337 333 336 340 344 344 351 0 10 15 21 25 27 39 102 129
344 343 342 342 343 346 347 347 347 349 352 353 352 352 351 350 344 340 339 338 337 341 344 342 344 349 350 346 349 355 5 22 33 49 62 67 69 70 69 71 75 75 77 88
342 343 342 342 343 345 346 346 349 353 354 355 353 353 349 347 345 343 342 340 340 347 351 350 353 353 356 5 19 40 59 71 73 74 75 78 80 81 80 79 79 81 81 85
341 341 344 343 343 343 345 347 353 353 355 354 356 355 352 347 346 346 346 344 343 350 354 356 357 2 17 41 66 87 77 80 85 89 89 86 85 85 83 81 80 78 76 74
340 342 342 341 345 344 347 350 353 352 353 354 356 353 350 345 346 347 349 345 349 353 357 360 6 24 51 75 85 94 101 99 93 88 84 84 83 83 85 85 87 86 86 83
340 340 341 344 347 348 351 353 356 356 357 356 356 354 349 349 345 348 347 353 358 358 1 12 26 50 59 89 98 106 102 97 93 93 91 87 84 83 83 83 84 84 84 84
342 341 341 342 345 348 349 353 357 357 356 356 355 354 350 349 347 346 349 353 359 360 6 28 65 80 89 105 112 109 103 97 99 96 93 91 91 89 90 87 84 86 86 86
343 343 343 342 344 347 348 349 355 357 358 354 356 356 353 347 349 348 349 351 352 0 21 64 114 106 117 117 116 109 106 104 106 102 98 95 99 100 98 95 93 92 88 94
341 341 341 340 342 344 348 352 355 355 357 355 356 356 354 346 350 350 352 357 359 12 47 99 120 134 125 120 117 115 113 111 111 107 102 100 97 99 98 92 92 82 87 86
337 340 342 339 341 344 347 351 355 356 354 356 358 359 353 347 349 350 358 358 8 23 74 101 143 138 130 128 121 115 115 116 116 107 104 97 90 90 97 96 91 81 77 77
337 339 340 342 343 346 348 351 353 357 358 354 358 355 356 348 348 352 358 360 13 43 81 127 149 144 137 126 121 118 119 113 111 103 102 91 87 88 95 90 89 87 84 84
337 339 339 342 342 346 353 353 355 358 355 354 356 355 356 348 346 352 359 5 17 64 98 142 149 147 133 125 125 120 114 114 112 100 101 102 91 95 97 98 92 91 92 93
337 338 338 341 342 344 348 350 353 354 354 354 354 358 353 349 344 353 2 12 35 92 120 150 151 141 140 129 124 117 109 111 103 102 101 104 105 105 98 94 88 88 81 78
336 338 339 340 343 345 349 349 352 353 354 354 355 356 353 350 345 355 5 20 83 121 135 151 148 146 137 132 118 117 114 113 115 113 111 115 115 105 101 92 89 86 77 77
Height
10842 10835 10828 10822 10815 10807 10796 10788 10780 10770 10762 10752 10737 10725 10711 10698 10684 10668 10652 10636 10620 10605 10586 10570 10556 10541 10527 10515 10507 10501 10493 10483 10478 10471 10464 10461 10458 10453 10450 10444 10446 10449 10453 10459
10836 10830 10822 10814 10805 10796 10787 10776 10766 10753 10738 10728 10716 10706 10692 10677 10661 10645 10627 10607 10586 10570 10552 10538 10523 10504 10488 10475 10462 10452 10443 10437 10427 10418 10412 10409 10411 10412 10409 10405 10405 10405 10410 10416
10831 10823 10814 10806 10796 10785 10775 10765 10753 10741 10730 10714 10700 10691 10673 10656 10640 10619 10597 10574 10553 10534 10517 10497 10480 10463 10447 10433 10422 10411 10404 10396 10381 10373 10371 10369 10366 10370 10366 10363 10364 10366 10368 10373
10826 10817 10809 10799 10790 10779 10766 10756 10743 10729 10716 10699 10682 10665 10655 10634 10615 10592 10565 10538 10512 10491 10471 10452 10435 10422 10407 10394 10384 10372 10363 10356 10343 10343 10335 10330 10328 10325 10323 10321 10321 10321 10321 10323
10820 10811 10802 10795 10785 10772 10759 10745 10733 10718 10703 10686 10666 10647 10632 10611 10585 10558 10528 10500 10476 10453 10433 10416 10397 10381 10370 10357 10346 10334 10325 10314 10306 10301 10296 10294 10292 10290 10290 10286 10286 10285 10285 10289
10814 10806 10794 10784 10776 10762 10751 10735 10721 10707 10691 10674 10655 10632 10613 10582 10555 10526 10496 10469 10445 10420 10398 10380 10359 10343 10331 10317 10308 10300 10290 10281 10274 10270 10267 10266 10265 10261 10259 10258 10257 10254 10257 10260
10807 10798 10788 10776 10765 10754 10740 10724 10711 10697 10679 10655 10634 10609 10587 10560 10531 10497 10467 10441 10413 10387 10366 10348 10329 10315 10302 10287 10279 10268 10262 10255 10248 10244 10240 10239 10238 10236 10235 10231 10230 10230 10231 10233
10800 10793 10782 10770 10758 10743 10728 10711 10689 10668 10653 10639 10619 10596 10568 10534 10505 10469 10434 10400 10366 10340 10322 10308 10293 10282 10272 10260 10252 10245 10238 10231 10225 10222 10217 10214 10213 10215 10212 10209 10207 10208 10211 10214
10791 10783 10775 10762 10750 10730 10713 10694 10677 10660 10639 10614 10589 10563 10537 10512 10483 10447 10419 10391 10363 10337 10313 10294 10276 10262 10252 10240 10233 10226 10219 10214 10209 10205 10203 10199 10196 10195 10193 10191 10192 10194 10196 10198
10785 10774 10764 10752 10739 10723 10701 10680 10661 10640 10613 10596 10580 10539 10512 10487 10456 10429 10397 10368 10341 10316 10294 10276 10261 10245 10233 10227 10220 10212 10206 10200 10196 10192 10188 10185 10183 10181 10180 10180 10181 10182 10183 10185
10777 10765 10755 10742 10727 10707 10688 10670 10649 10627 10596 10567 10545 10525 10490 10453 10408 10384 10360 10335 10315 10297 10279 10264 10249 10236 10225 10215 10206 10199 10195 10190 10186 10183 10180 10176 10174 10172 10172 10172 10172 10173 10173 10174
10765 10754 10746 10735 10718 10698 10680 10659 10636 10609 10585 10558 10532 10511 10475 10439 10394 10361 10340 10317 10298 10279 10264 10251 10238 10226 10215 10206 10199 10193 10187 10183 10179 10176 10174 10172 10170 10169 10168 10167 10166 10167 10168 10169
10757 10745 10735 10721 10706 10686 10667 10646 10623 10598 10574 10545 10513 10486 10454 10421 10384 10345 10326 10306 10290 10276 10256 10240 10230 10220 10211 10203 10197 10191 10185 10181 10178 10175 10174 10172 10171 10170 10168 10167 10166 10165 10166 10167
10747 10734 10724 10708 10692 10674 10655 10634 10609 10585 10562 10538 10498 10466 10439 10410 10384 10345 10317 10296 10281 10270 10254 10240 10228 10219 10211 10204 10198 10193 10187 10183 10180 10178 10176 10174 10173 10172 10172 10172 10171 10171 10171 10172
10738 10724 10711 10699 10682 10662 10645 10623 10597 10568 10545 10514 10490 10450 10417 10386 10368 10341 10318 10293 10274 10261 10249 10238 10229 10219 10212 10206 10200 10196 10191 10187 10187 10186 10184 10182 10182 10182 10182 10181 10180 10179 10180 10180
10730 10717 10703 10690 10675 10654 10636 10613 10586 10551 10529 10509 10480 10452 10411 10367 10352 10331 10308 10291 10273 10260 10247 10238 10231 10223 10216 10209 10206 10203 10201 10200 10198 10197 10195 10194 10193 10193 10191 10190 10189 10190 10190 10190
10722 10708 10696 10681 10668 10647 10628 10604 10577 10544 10520 10494 10463 10436 10412 10372 10342 10325 10315 10294 10277 10262 10252 10243 10235 10228 10221 10214 10213 10213 10211 10210 10211 10210 10208 10206 10205 10205 10204 10204 10203 10203 10203 10203
10714 10702 10687 10671 10654 10640 10616 10593 10568 10538 10505 10484 10453 10428 10395 10358 10329 10317 10302 10295 10277 10263 10254 10247 10240 10235 10229 10227 10225 10225 10225 10225 10223 10222 10222 10220 10219 10219 10218 10217 10217 10218 10218 10218
10705 10691 10679 10665 10650 10628 10607 10586 10562 10539 10511 10480 10453 10423 10388 10359 10324 10303 10291 10278 10275 10267 10261 10253 10247 10244 10241 10241 10238 10237 10239 10240 10240 10238 10236 10237 10238 10237 10236 10235 10235 10234 10235 10234
10695 10682 10669 10654 10639 10618 10597 10577 10551 10526 10497 10467 10441 10417 10389 10362 10340 10318 10302 10292 10280 10273 10268 10261 10259 10258 10255 10254 10253 10253 10255 10255 10254 10253 10252 10253 10254 10255 10256 10255 10253 10253 10253 10251
10689 10676 10660 10645 10629 10613 10591 10568 10547 10516 10500 10475 10443 10411 10385 10350 10335 10325 10310 10297 10286 10281 10275 10269 10271 10269 10268 10267 10267 10267 10268 10268 10269 10269 10268 10268 10270 10273 10273 10273 10273 10275 10273 10272
10679 10666 10651 10637 10620 10604 10581 10557 10535 10514 10487 10466 10436 10407 10382 10349 10332 10320 10311 10301 10290 10287 10282 10281 10282 10281 10281 10281 10281 10283 10284 10283 10285 10287 10288 10288 10288 10289 10290 10290 10292 10293 10290 10290
10669 10656 10640 10623 10603 10589 10569 10545 10524 10503 10478 10458 10431 10403 10386 10355 10338 10326 10315 10307 10298 10293 10290 10293 10293 10292 10292 10295 10297 10297 10298 10300 10303 10302 10305 10306 10306 10306 10307 10307 10307 10307 10306 10307
10661 10647 10633 10616 10599 10582 10560 10537 10513 10495 10471 10450 10428 10406 10385 10359 10341 10330 10320 10313 10305 10301 10300 10302 10303 10304 10309 10311 10310 10311 10313 10314 10317 10318 10318 10320 10321 10323 10324 10322 10321 10322 10322 10323
10652 10639 10624 10610 10592 10573 10556 10533 10511 10491 10468 10448 10424 10406 10385 10359 10346 10334 10325 10319 10313 10311 10310 10312 10314 10318 10320 10323 10323 10327 10329 10330 10331 10331 10331 10333 10334 10335 10336 10337 10338 10337 10339 10339
10641 10630 10615 10600 10585 10568 10551 10530 10508 10491 10470 10449 10427 10402 10381 10358 10347 10337 10330 10325 10320 10319 10319 10322 10326 10329 10332 10334 10336 10340 10341 10342 10343 10341 10342 10343 10345 10348 10349 10348 10348 10349 10350 10351